Location: Fluertsh�userhof
(48.7537°N, 10.3850°E)
Time: 15:49:13
(UTC+00:00)

Daily predictions for brighter satellites

Satellite Brightness Start Highest point End
(mag) Time Altitude Azimuth Time Altitude Azimuth Time Altitude Azimuth
Cosmos 2084 3.5 16:04:51 10° NW 16:09:08 57° NE 16:13:18 10° ESE
Meteor 2-3 Rocket 3.8 16:05:44 10° N 16:11:30 61° ENE 16:17:13 10° SSE
Sich 1 4.3 16:09:41 10° NNE 16:12:53 20° ENE 16:16:04 10° ESE
ATLAS 5 CENTAUR R/B 2.5 16:09:12 10° NW 16:14:37 50° NE 16:20:50 10° ESE
Cosmos 1867 3.9 16:09:48 10° SSW 16:15:05 53° ESE 16:20:25 10° NE
Cosmos 1408 3.1 16:11:57 10° NNW 16:15:32 64° W 16:19:04 10° S
Cosmos 1238 Rocket 3.2 16:12:35 10° N 16:17:09 47° ENE 16:20:54 10° SSE
Feng Yun 1-1 Rocket 4.3 16:11:39 10° SSE 16:17:12 65° ENE 16:22:38 10° N
ATLAS 3B R/B 4.0 16:11:44 10° WNW 16:17:13 26° NNW 16:22:44 10° NE
TSX-5 4.1 16:15:18 10° SSW 16:19:10 65° ESE 16:24:11 10° NE
Cosmos 1689 Rocket 3.6 16:18:32 10° N 16:21:23 39° WNW 16:24:15 10° SW
PSLV R/B 4.0 16:17:41 10° NNE 16:21:56 69° ESE 16:26:07 10° S
NOAA 12 4.3 16:28:36 10° SE 16:33:45 52° ENE 16:38:55 10° N
GEOS 3 Rocket 3.9 16:29:26 10° NE 16:34:35 55° SE 16:39:45 10° SSW
CZ-3B R/B 2.9 16:33:28 10° W 16:35:23 37° NNW 16:37:35 13° NE
Cosmos 1356 Rocket 4.4 16:33:54 10° SSE 16:37:22 26° E 16:40:54 10° NE
YAOGAN 1 3.7 16:34:33 10° ESE 16:37:52 22° ENE 16:41:12 10° NNE
Cosmos 2221 2.5 16:34:30 10° S 16:38:48 72° E 16:43:09 10° NNE
Cosmos 1825 3.4 16:37:27 10° NNW 16:41:04 45° W 16:44:42 10° SSW
COBE Rocket 4.1 16:36:40 10° NNE 16:41:20 45° E 16:45:51 10° S
Lacrosse 4 Rocket 3.1 16:41:57 10° SE 16:44:02 14° ESE 16:44:38 13° E
Cosmos 1656 4.4 16:42:09 10° SSE 16:47:02 32° ESE 16:51:32 12° NE
Okean-O 2.6 16:42:49 10° SSE 16:47:12 66° ENE 16:51:38 10° N
Cosmos 1842 Rocket 4.0 16:43:16 10° SSW 16:47:44 69° W 16:52:14 10° N
Cosmos 1340 Rocket 4.4 16:45:18 10° SW 16:49:02 37° WNW 16:52:51 10° N
Cosmos 1633 3.2 16:50:59 10° N 16:54:18 32° ENE 16:57:36 10° SE
BREEZE-M DEB (TANK) 2.1 16:51:08 10° W 16:55:12 74° N 16:56:24 26° ENE
SKYMED 2 4.3 16:51:36 10° NNE 16:55:32 32° E 16:59:27 10° SSE
Cosmos 2219 3.3 16:49:57 10° NNW 16:55:35 79° WSW 17:01:12 10° SSE
Cosmos 1869 3.4 16:53:41 10° S 16:57:32 52° E 17:01:23 10° NNE
USA 215 3.5 16:53:04 15° E 16:58:25 52° NNE 17:04:43 10° WNW
TELKOM 3 3.7 16:57:45 10° W 16:59:49 42° SSW 17:00:50 22° SE
CZ-4 R/B 1.8 16:56:36 10° SE 17:00:31 41° ENE 17:04:23 10° N
Cosmos 2369 Rocket 4.4 16:56:41 10° W 17:00:33 19° NW 17:04:26 10° N
Cosmos 2233 Rocket 4.4 16:54:28 10° NNW 17:00:47 71° W 17:07:02 10° S
USA 229 DEB 3.7 16:59:23 10° SSW 17:05:48 58° ESE 17:11:21 16° NE
USA 229 3.7 16:59:31 10° SSW 17:05:54 58° ESE 17:11:25 16° NE
Cosmos 1805 Rocket 3.4 17:02:02 10° N 17:06:24 83° E 17:10:46 10° S
Envisat 2.9 17:04:04 10° SSE 17:09:09 81° ENE 17:14:16 10° NNW
CSL-04 Rocket 3.8 17:05:20 10° SE 17:10:28 48° ENE 17:15:34 10° N
NOSS 3-1 (A) 3.9 17:06:13 10° S 17:11:13 36° ESE 17:14:22 22° ENE
NOSS 3-1 (C) 3.5 17:06:34 10° SSW 17:11:57 55° ESE 17:16:25 19° NE
YAOGAN 6 2.4 17:12:05 10° SSE 17:15:31 60° ENE 17:18:59 10° N
Cosmos 1980 Rocket 3.6 17:11:57 10° SE 17:14:49 18° ESE 17:14:49 18° ESE
Cosmos 1939 Rocket 3.8 17:16:20 28° ENE 17:16:20 28° ENE 17:19:50 10° N
Cosmos 2227 Rocket 2.2 17:10:56 10° NNW 17:16:38 85° WSW 17:22:18 10° SSE
Cosmos 2297 Rocket 2.3 17:11:15 10° NNW 17:16:56 80° WSW 17:22:35 10° SSE
Cosmos 2344 4.1 17:12:13 10° WSW 17:19:37 60° NW 17:27:43 12° NE
FengYun 1-2 T 4.1 17:14:25 10° SSE 17:19:57 78° ENE 17:25:28 10° NNW
Cosmos 1464 Rocket 3.9 17:16:22 10° N 17:22:34 73° E 17:28:40 10° SSE
Meteor 2-20 Rocket 4.3 17:16:44 10° S 17:22:48 75° E 17:28:58 10° NNE
Cosmos 1891 Rocket 4.4 17:16:34 10° N 17:23:00 74° E 17:29:15 10° SSE
SeaSat 1 3.1 17:19:08 10° SSE 17:23:59 57° WSW 17:28:52 10° NW
Cosmos 397 4.4 17:25:49 10° NNW 17:29:59 58° NE 17:31:17 38° ESE
Cosmos 1072 Rocket 4.4 17:25:05 10° N 17:31:14 89° E 17:37:25 10° S
Cosmos 2369 3.9 17:28:37 10° S 17:34:00 47° ESE 17:36:23 30° NE
Geosat 4.2 17:30:47 12° NNE 17:35:30 69° WNW 17:40:30 10° SW
Cosmos 1633 Rocket 2.9 17:32:12 10° N 17:36:37 76° E 17:41:02 10° SSE
Cosmos 2112 Rocket 4.5 17:32:38 10° SSE 17:37:20 36° ESE 17:37:20 36° ESE
Genesis I 4.2 17:36:21 10° WSW 17:40:13 44° NW 17:42:06 26° NNE
Cosmos 2263 Rocket 3.2 17:36:50 10° NNW 17:41:12 26° NE 17:41:12 26° NE
COSMO-SKYMED 1 2.5 17:39:19 10° NNE 17:43:41 84° WNW 17:48:02 10° SSW
Cosmos 2082 3.7 17:38:04 10° NNW 17:43:44 83° WSW 17:49:21 10° SSE
Cosmos 1680 Rocket 3.7 17:39:53 10° S 17:44:52 48° ESE 17:45:41 44° ENE
Cosmos 1862 3.3 17:42:30 10° NNW 17:46:29 79° W 17:50:28 10° S
Cosmos 1666 Rocket 3.8 17:42:47 10° NNW 17:47:11 71° W 17:51:30 10° S
ERBS 3.4 17:45:09 10° SSW 17:47:20 33° S 17:47:20 33° S
Sich 1 4.0 17:46:39 10° NNW 17:50:50 48° W 17:55:02 10° SSW
NOSS 2-3 (C) 4.3 17:46:54 10° S 17:50:25 39° SE 17:50:25 39° SE
Ariane Rocket 3.1 17:51:23 49° E 17:52:05 52° ENE 17:57:02 10° N
CENTAUR R/B 4.1 17:47:19 10° NW 17:53:23 27° N 17:56:08 23° NE
Cosmos 2278 3.8 17:48:41 10° S 17:54:09 51° ESE 17:54:50 48° E
Cosmos 1328 Rocket 3.4 17:49:57 10° S 17:54:21 67° E 17:54:25 67° E
Cosmos 1697 Rocket 2.6 17:49:54 10° SSW 17:55:28 64° ESE 17:57:08 44° NE
IRS-1A Rocket 4.3 17:55:32 44° ESE 17:56:55 54° ENE 18:02:30 10° N
Cosmos 1932 4.5 17:50:41 10° NW 17:57:14 72° NE 17:59:49 39° ESE
H-2A R/B 3.8 18:00:03 18° NNE 18:00:03 18° NNE 18:01:45 10° N
ATLAS 5 CENTAUR R/B 3.5 17:53:53 10° NW 17:59:22 44° WSW 18:05:35 10° S
Cosmos 1151 Rocket 3.3 17:55:57 10° S 17:59:23 53° SSE 17:59:23 53° SSE
BREEZE-M DEB (TANK) 3.6 18:02:45 10° SW 18:06:05 29° S 18:06:05 29° S
Cosmos 923 Rocket 3.9 18:03:52 10° SSW 18:09:06 86° WNW 18:10:51 43° NNE
ATLAS 3B R/B 4.0 18:05:01 10° NW 18:10:10 23° N 18:11:27 22° NNE
Cosmos 2227 4.5 18:04:40 10° NNW 18:09:53 49° NE 18:09:53 49° NE
Cosmos 1624 Rocket 3.9 18:08:16 10° NNW 18:13:39 75° ENE 18:13:48 74° E
Cosmos 2056 Rocket 3.4 18:08:31 10° NNW 18:13:20 70° NE 18:13:20 70° NE
YAOGAN 1 3.6 18:09:32 10° S 18:13:42 46° W 18:17:54 10° NNW
Cosmos 1470 Rocket 3.7 18:13:31 10° NNW 18:17:57 74° W 18:17:57 74° W
Cosmos 2034 Rocket 4.4 18:12:20 10° NNW 18:18:37 64° W 18:24:53 10° S
Cosmos 2346 Rocket 4.4 18:13:21 10° S 18:19:36 87° W 18:25:50 10° N
Lacrosse 4 Rocket 2.3 18:18:06 10° SW 18:21:00 44° SW 18:21:00 44° SW
Gblst 52 Del rocket 4.4 18:17:55 10° W 18:24:40 68° N 18:25:22 63° NE
CZ-4 R/B 3.9 18:32:28 10° SW 18:35:42 21° W 18:38:54 10° NW
Cosmos 1634 Rocket 3.9 18:34:45 10° N 18:40:42 82° N 18:40:42 82° N
USA 215 3.1 18:40:26 69° SSE 18:41:15 81° SW 18:47:49 10° WNW
Tsikada Rocket 4.2 18:35:20 10° SSW 18:41:40 72° W 18:48:08 10° N
USA 229 4.5 18:50:46 10° WSW 18:57:06 45° NW 18:58:52 38° N
Cosmos 1980 Rocket 3.3 18:53:25 10° SSW 18:56:39 36° SW 18:56:39 36° SW
NOSS 3-1 (A) 3.9 18:56:12 10° WSW 19:01:50 54° NW 19:01:51 54° NW
NOSS 3-1 (C) 4.4 18:57:32 10° WSW 19:03:02 41° NNW 19:03:49 40° NNW
Cosmos 2263 Rocket 3.9 19:20:23 10° NNW 19:22:54 27° NW 19:22:54 27° NW
CENTAUR R/B 4.0 19:38:34 10° NW 19:43:18 37° NNW 19:43:18 37° NNW
ATLAS 3B R/B 4.5 19:56:15 10° NW 19:58:41 22° NNW 19:58:41 22° NNW
